"Pseudo-MPEC" for P10UYZ2

Created 2019 Dec 3 21:07:28 UT using Find_Orb

Click here for an explanation of pseudo-MPECs

 
 Astrometry: 
     P10UYZ2  C2019 11 29%sH\]VH?\,O!\xjZ^P0MZ76=eElfM+:uAwQjp3vEh2xXm\/W/'7=F51
     P10UYZ2  C2019 11 29/?!E](*w$LNUEClD1%BDL$S]g4uB+^aG9-^B7[F=dUYcx-d_*.e.F51
     P10UYZ2  C2019 11 29;HPOCLZ'3[u@@=2UcO?c\qCj[(tCm\^ofg98!t\oFVf22Ob+H%B?F51
     P10UYZ2 |C2019 11 30H2*`CQv[F=H9/Ih5_7\$H(Sdg!i/tkutu5qLfAstrometryRs)Tf807
     P10UYZ2 |C2019 11 308#TN=ld3pfo#Q\Y@FS2u(aey4Q,a4`'\T[(rnR9=/jyhdyvPOX8:807
     P10UYZ2 |C2019 12 01WE=AY$H_v^n1f@YrYv(IOJ4OFredacted;X$Vr6\qS#P15ad]rQ$807
     P10UYZ2 |C2019 12 01QI]M+a#VO,Vmd[J6K`click-X7DD+.dX9h/c%7Hf:$;[/p3Tus;S807
     P10UYZ2 |C2019 12 017,Q[27Dvo]XDoIheredcMZcbi[XVi-O*;AjlV#)yR8r18pZaZDi:807
     P10UYZ2 KC2019 12 03.32463 05 56 04.32 -00 00 10.1    ~C38M 20.8 RoNEOCP291
     P10UYZ2 KC2019 12 03.33511 05 56 03.46 -00 00 03.4    ~C38M 22.0 RoNEOCP291
     P10UYZ2  C2019 12 03aQ]Cdm2qCqfaYtOogjZY`:A@8d5oLwY@c+=4q5P*cnG8fpYVP9j4F51
     P10UYZ2  C2019 12 037)R]G,Z[w@w2k2bvv0whwm-C;$g)op5O-\[g=be79Q)LmY#VjTIlF51
     P10UYZ2  C2019 12 03bFa@3D5^Ydkpy3g;xfor%U).[vA]ywM.tJF5j3ZYqexplanationF51

Station data:
(291) LPL/Spacewatch II  (N31.961669 W111.599905)  US/Arizona.  Observers J.
   V. Scotti, R. S. McMillan. 1.8-m f/2.7 reflector + CCD.
(807) Cerro Tololo Observatory, La Serena  (S30.169136 W70.805900)  Chile.
(F51) Pan-STARRS 1, Haleakala  (N20.707235 W156.255910)  US/Hawaii.
   Observers N. Primak, A. Schultz, S. Watters, J. Thiel, T. Goggia. Measurer
   PS1 Science Consortium. 1.8-m Ritchey-Chrétien + CCD.

Orbital elements:  P10UYZ2
   Perihelion 2019 Apr 9.099734 +/- 29 TT =  2:23:37 (JD 2458582.599734)
Epoch 2019 Dec  3.0 TT = JDT 2458820.5   Earth MOID: 0.6695   AutoNEOCP
M  92.53575469 +/- 10               (J2000 ecliptic)
n   0.38896868 +/- 0.00348          Peri.  223.96306 +/- 6
a   1.85863004 +/- 0.0111           Node   107.92502 +/- 1.3
e   0.1116213 +/- 0.0227            Incl.   23.48056 +/- 1.4
P   2.53/925.51d           H 19.7   G  0.15   U  9.0  
q 1.65116727 +/- 0.0503    Q 2.06609281 +/- 0.0326
From 13 observations 2019 Nov. 29-Dec. 3; mean residual 0".31
Residuals in arcseconds: 
191129 F51  .33+  .33+    191201 807  .12+  .04+    191203 F51  .11+  .18+    
191129 F51  .18+  .46+    191201 807  .11+  .02+    191203 F51  .15-  .02-    
191129 F51  .15+  .13+    191201 807  .07+  .10+    191203 F51  .06-  .06+    
191130 807  .73-  1.0-    191203 291  .00   .07+    
191130 807  .37-  .34-    191203 291  .14+  .11-    

Ephemerides (geocentric):
Date (UTC) HH   RA              Dec         delta   r     elong  mag " sig PA
---- -- -- --  -------------   -----------  ------ ------ -----  --- ---- ---
2019 12 03 21  05 55 20.070   +00 05 59.83  .96796 1.8918 151.1 21.8 .663 173
2019 12 03 22  05 55 16.709   +00 06 27.79  .96786 1.8918 151.1 21.8 .696 174
2019 12 03 23  05 55 13.346   +00 06 55.78  .96775 1.8919 151.1 21.8 .729 175
2019 12 04 00  05 55 09.979   +00 07 23.82  .96765 1.8919 151.2 21.8 .763 175
2019 12 04 01  05 55 06.610   +00 07 51.90  .96754 1.8920 151.2 21.8 .798 176
2019 12 04 02  05 55 03.238   +00 08 20.02  .96743 1.8920 151.3 21.8 .833 177
2019 12 04 03  05 54 59.864   +00 08 48.19  .96733 1.8921 151.3 21.8 .869 178
2019 12 04 04  05 54 56.487   +00 09 16.40  .96723 1.8922 151.3 21.8 .905 179
2019 12 04 05  05 54 53.107   +00 09 44.65  .96712 1.8922 151.4 21.8 .942 179
2019 12 04 06  05 54 49.725   +00 10 12.94  .96702 1.8923 151.4 21.8 .980   0
2019 12 04 07  05 54 46.340   +00 10 41.28  .96692 1.8923 151.5 21.8 1.02   0
2019 12 04 08  05 54 42.953   +00 11 09.66  .96681 1.8924 151.5 21.8 1.06   1
2019 12 04 09  05 54 39.563   +00 11 38.08  .96671 1.8924 151.5 21.8 1.10   2
2019 12 04 10  05 54 36.170   +00 12 06.54  .96661 1.8925 151.6 21.8 1.14   2
2019 12 04 11  05 54 32.775   +00 12 35.05  .96651 1.8926 151.6 21.8 1.18   3
2019 12 04 12  05 54 29.377   +00 13 03.59  .96641 1.8926 151.7 21.8 1.22   3
2019 12 04 13  05 54 25.977   +00 13 32.18  .96631 1.8927 151.7 21.8 1.26   4
2019 12 04 14  05 54 22.574   +00 14 00.81  .96621 1.8927 151.7 21.8 1.30   4
2019 12 04 15  05 54 19.169   +00 14 29.49  .96611 1.8928 151.8 21.8 1.34   5
2019 12 04 16  05 54 15.761   +00 14 58.21  .96601 1.8928 151.8 21.8 1.39   5
2019 12 04 17  05 54 12.350   +00 15 26.96  .96591 1.8929 151.8 21.8 1.43   6
2019 12 04 18  05 54 08.937   +00 15 55.76  .96581 1.8929 151.9 21.8 1.48   6
2019 12 04 19  05 54 05.522   +00 16 24.61  .96571 1.8930 151.9 21.8 1.52   6
2019 12 04 20  05 54 02.104   +00 16 53.49  .96562 1.8931 152.0 21.8 1.57   7
2019 12 04 21  05 53 58.683   +00 17 22.42  .96552 1.8931 152.0 21.8 1.61   7
2019 12 04 22  05 53 55.260   +00 17 51.39  .96542 1.8932 152.0 21.8 1.66   8
2019 12 04 23  05 53 51.834   +00 18 20.40  .96532 1.8932 152.1 21.8 1.71   8
2019 12 05 00  05 53 48.406   +00 18 49.46  .96523 1.8933 152.1 21.8 1.76   8
2019 12 05 01  05 53 44.976   +00 19 18.55  .96513 1.8933 152.2 21.8 1.81   9
2019 12 05 02  05 53 41.543   +00 19 47.69  .96504 1.8934 152.2 21.8 1.86   9
2019 12 05 03  05 53 38.108   +00 20 16.87  .96494 1.8935 152.2 21.8 1.91  10
2019 12 05 04  05 53 34.670   +00 20 46.09  .96485 1.8935 152.3 21.8 1.96  10
2019 12 05 05  05 53 31.230   +00 21 15.36  .96476 1.8936 152.3 21.8 2.01  10
2019 12 05 06  05 53 27.787   +00 21 44.66  .96466 1.8936 152.3 21.8 2.06  11
2019 12 05 07  05 53 24.342   +00 22 14.01  .96457 1.8937 152.4 21.8 2.11  11
2019 12 05 08  05 53 20.894   +00 22 43.40  .96448 1.8937 152.4 21.8 2.16  11
2019 12 05 09  05 53 17.444   +00 23 12.83  .96438 1.8938 152.5 21.8 2.22  12
2019 12 05 10  05 53 13.992   +00 23 42.31  .96429 1.8939 152.5 21.8 2.27  12
2019 12 05 11  05 53 10.537   +00 24 11.82  .96420 1.8939 152.5 21.8 2.33  12
2019 12 05 12  05 53 07.080   +00 24 41.38  .96411 1.8940 152.6 21.8 2.38  13
2019 12 05 13  05 53 03.621   +00 25 10.98  .96402 1.8940 152.6 21.8 2.44  13
2019 12 05 14  05 53 00.159   +00 25 40.62  .96393 1.8941 152.6 21.8 2.50  13
2019 12 05 15  05 52 56.695   +00 26 10.30  .96384 1.8941 152.7 21.8 2.55  13
2019 12 05 16  05 52 53.228   +00 26 40.03  .96375 1.8942 152.7 21.8 2.61  14
2019 12 05 17  05 52 49.759   +00 27 09.80  .96366 1.8943 152.8 21.8 2.67  14
2019 12 05 18  05 52 46.288   +00 27 39.60  .96357 1.8943 152.8 21.8 2.73  14
2019 12 05 19  05 52 42.815   +00 28 09.46  .96348 1.8944 152.8 21.8 2.79  15
2019 12 05 20  05 52 39.339   +00 28 39.35  .96339 1.8944 152.9 21.8 2.85  15